{"data":{"norad_id":65573,"epoch":"2026-09-20T00:08:22.580160Z","epoch_age_seconds":57005,"freshness":"FRESH","line1":"1 65573U 25203J   26263.00581690  .00000056  00000+0  39728-4 0  9999","line2":"2 65573  81.2975 283.0267 0005781 307.4216  52.6414 13.83534258 51800","mean_motion":13.83534258,"eccentricity":0.0005781,"inclination_deg":81.2975,"raan_deg":283.0267,"arg_perigee_deg":307.4216,"mean_anomaly_deg":52.6414,"bstar":3.9728e-5,"rev_number":5180,"period_min":104.08126807656,"perigee_km":947.14066969191,"apogee_km":955.61505477563,"semimajor_km":7329.5148622338,"source":"CELESTRAK","updated_at":"2026-09-20T09:00:47.715988Z"}}